星链-3790 (STARLINK-3790 )

导读 | 星芒AI

STARLINK-3790 是 SpaceX Starlink 项目中的一颗低轨通信卫星,属于第 11 批组网发射的卫星之一。该卫星旨在为全球用户提供高速互联网服务,尤其关注网络覆盖不足的地区。它运行在约 550 公里的轨道高度,配备先进通信设备,支持星间链路,以减少地面基站依赖。STARLINK-3790 的部署有助于提升 Starlink 网络的稳定性和覆盖范围,推动全球宽带接入的普及。

基本信息
目录编号:
52274
目录名称:
STARLINK-3790
国际标识:
2022-041P
轨道中心:
EARTH
卫星名称:
星链-3790
卫星全名:
星链-3790 (STARLINK-3790 )
卫星状态:
在轨 (已飞行1293 天)
发射日期:
2022-04-21 UTC
国别 :
美国 (US)
星等 :
--
轨道信息
数据来源 国际轨道数据
星历时间: 2025-11-04T14:47:03+0800
12小时前
查看轨道信息
半长轴: 6917.873km
偏心率: 0.0001362
轨道倾角: 53.217°
近地点辐角 85.085°
升交点赤经 312.095°
平近点角 275.030°
近地点: 538.795km
远地点: 540.681km
周期: 95.437分钟
每日圈数: 15.088426
详细信息
固有亮度:
5
最大亮度:
2.5
卫星平台:
Starlink v1.5
覆盖范围:
全球
运营商:
太空探索技术公司
运营商所在国:
美国
制造商(研发单位):
太空探索技术公司
制造商所在国:
美国
使用方式:
暂无
卫星简介
星链(Starlink)计划是由太空探索技术公司(SpaceX)提出的一个巨型低轨卫星互联网星座项目,计划在2019年至2024年间在太空搭建由约1.2万颗卫星组成的“星链”网络,其中1584颗将部署在地球上空550千米处的近地轨道,并从2020年开始工作。该卫星仍在工作。
2D轨道图
3D轨道图
轨道高度分析图
轨道倾角分析图
轨道综合分析图
查看轨道综合分析图